Time,TemperatureF,DewpointF,PressureIn,WindDirection,WindDirectionDegrees,WindSpeedMPH,WindSpeedGustMPH,Humidity,HourlyPrecipIn,Conditions,Clouds,dailyrainin,SoftwareType,DateUTC
2014-01-21 00:03:00,-0.4,-8.2,29.10,North,0,0.0,0.0,69,0.00,,,0.00,WUHU216HW,2014-01-21 06:03:00,
2014-01-21 00:07:00,-0.5,-8.4,29.10,North,0,0.0,0.0,69,0.00,,,0.00,WUHU216HW,2014-01-21 06:07:00,
2014-01-21 00:12:00,-0.7,-8.5,29.10,North,0,0.0,0.0,69,0.00,,,0.00,WUHU216HW,2014-01-21 06:12:00,
2014-01-21 00:17:00,-1.1,-8.9,29.10,North,0,0.0,0.0,69,0.00,,,0.00,WUHU216HW,2014-01-21 06:17:00,
2014-01-21 00:22:00,-1.1,-8.9,29.10,North,0,0.0,0.0,69,0.00,,,0.00,WUHU216HW,2014-01-21 06:22:00,
2014-01-21 00:27:00,-1.3,-9.1,29.11,North,0,0.0,0.0,69,0.00,,,0.00,WUHU216HW,2014-01-21 06:27:00,
2014-01-21 00:32:00,-1.4,-9.2,29.11,North,0,0.0,0.0,69,0.00,,,0.00,WUHU216HW,2014-01-21 06:32:00,
2014-01-21 00:37:00,-1.4,-9.2,29.10,North,0,0.0,0.0,69,0.00,,,0.00,WUHU216HW,2014-01-21 06:37:00,
2014-01-21 00:42:00,-1.6,-9.3,29.11,North,0,0.0,0.0,69,0.00,,,0.00,WUHU216HW,2014-01-21 06:42:00,
2014-01-21 00:47:00,-1.8,-9.5,29.10,North,0,0.0,0.0,69,0.00,,,0.00,WUHU216HW,2014-01-21 06:47:00,
2014-01-21 00:52:00,-1.8,-9.5,29.10,North,0,0.0,0.0,69,0.00,,,0.00,WUHU216HW,2014-01-21 06:52:00,
2014-01-21 00:57:00,-1.8,-9.5,29.11,North,0,0.0,0.0,69,0.00,,,0.00,WUHU216HW,2014-01-21 06:57:00,
2014-01-21 01:02:00,-2.0,-9.7,29.11,North,0,0.0,0.0,69,0.00,,,0.00,WUHU216HW,2014-01-21 07:02:00,
2014-01-21 01:07:00,-2.2,-9.9,29.11,North,0,0.0,0.0,69,0.00,,,0.00,WUHU216HW,2014-01-21 07:07:00,
2014-01-21 01:12:00,-2.5,-10.3,29.11,North,0,0.0,0.0,69,0.00,,,0.00,WUHU216HW,2014-01-21 07:12:00,
2014-01-21 01:17:00,-2.5,-9.9,29.11,North,0,0.0,0.0,70,0.00,,,0.00,WUHU216HW,2014-01-21 07:17:00,
2014-01-21 01:22:00,-2.5,-9.6,29.11,North,0,0.0,0.0,71,0.00,,,0.00,WUHU216HW,2014-01-21 07:22:00,
2014-01-21 01:27:00,-2.7,-10.1,29.11,North,0,0.0,0.0,70,0.00,,,0.00,WUHU216HW,2014-01-21 07:27:00,
2014-01-21 01:32:00,-2.9,-10.0,29.11,North,0,0.0,0.0,71,0.00,,,0.00,WUHU216HW,2014-01-21 07:32:00,
2014-01-21 01:37:00,-2.9,-10.0,29.12,North,0,0.0,0.0,71,0.00,,,0.00,WUHU216HW,2014-01-21 07:37:00,
2014-01-21 01:42:00,-3.1,-10.2,29.12,North,0,0.0,0.0,71,0.00,,,0.00,WUHU216HW,2014-01-21 07:42:00,
2014-01-21 01:47:00,-3.2,-10.1,29.12,North,0,0.0,0.0,72,0.00,,,0.00,WUHU216HW,2014-01-21 07:47:00,
2014-01-21 01:52:00,-3.4,-10.3,29.12,North,0,0.0,0.0,72,0.00,,,0.00,WUHU216HW,2014-01-21 07:52:00,
2014-01-21 01:56:00,-3.4,-10.3,29.13,North,0,0.0,0.0,72,0.00,,,0.00,WUHU216HW,2014-01-21 07:56:00,
2014-01-21 02:01:00,-3.6,-10.4,29.13,North,0,0.0,0.0,72,0.00,,,0.00,WUHU216HW,2014-01-21 08:01:00,
2014-01-21 02:06:00,-3.8,-10.6,29.13,North,0,0.0,0.0,72,0.00,,,0.00,WUHU216HW,2014-01-21 08:06:00,
2014-01-21 02:11:00,-3.6,-10.4,29.13,North,0,0.0,0.0,72,0.00,,,0.00,WUHU216HW,2014-01-21 08:11:00,
2014-01-21 02:14:00,-3.6,-10.2,29.13,North,0,0.0,0.0,73,0.00,,,0.00,WUHU216HW,2014-01-21 08:14:00,
2014-01-21 02:16:00,-3.6,-10.2,29.13,North,0,0.0,0.0,73,0.00,,,0.00,WUHU216HW,2014-01-21 08:16:00,
2014-01-21 02:21:00,-3.6,-10.2,29.13,North,0,0.0,0.0,73,0.00,,,0.00,WUHU216HW,2014-01-21 08:21:00,
2014-01-21 02:44:00,-4.3,-10.9,29.14,North,0,0.0,0.0,73,0.00,,,0.00,WUHU216HW,2014-01-21 08:44:00,
2014-01-21 02:49:00,-4.5,-11.3,29.14,North,0,0.0,0.0,72,0.00,,,0.00,WUHU216HW,2014-01-21 08:49:00,
2014-01-21 02:54:00,-4.3,-10.9,29.14,North,0,0.0,0.0,73,0.00,,,0.00,WUHU216HW,2014-01-21 08:54:00,
2014-01-21 02:59:00,-4.5,-11.3,29.14,North,0,0.0,0.0,72,0.00,,,0.00,WUHU216HW,2014-01-21 08:59:00,
2014-01-21 03:04:00,-4.5,-11.3,29.14,North,0,0.0,0.0,72,0.00,,,0.00,WUHU216HW,2014-01-21 09:04:00,
2014-01-21 03:09:00,-4.7,-11.2,29.14,North,0,0.0,0.0,73,0.00,,,0.00,WUHU216HW,2014-01-21 09:09:00,
2014-01-21 03:14:00,-4.7,-11.5,29.14,North,0,0.0,0.0,72,0.00,,,0.00,WUHU216HW,2014-01-21 09:14:00,
2014-01-21 03:19:00,-4.9,-11.7,29.14,North,0,0.0,0.0,72,0.00,,,0.00,WUHU216HW,2014-01-21 09:19:00,
2014-01-21 03:24:00,-5.0,-11.9,29.14,North,0,0.0,0.0,72,0.00,,,0.00,WUHU216HW,2014-01-21 09:24:00,
2014-01-21 03:29:00,-5.0,-11.6,29.14,North,0,0.0,0.0,73,0.00,,,0.00,WUHU216HW,2014-01-21 09:29:00,
2014-01-21 03:34:00,-5.2,-11.8,29.15,North,0,0.0,0.0,73,0.00,,,0.00,WUHU216HW,2014-01-21 09:34:00,
2014-01-21 03:39:00,-5.4,-12.2,29.15,North,0,0.0,0.0,72,0.00,,,0.00,WUHU216HW,2014-01-21 09:39:00,
2014-01-21 03:44:00,-5.4,-12.2,29.15,North,0,0.0,0.0,72,0.00,,,0.00,WUHU216HW,2014-01-21 09:44:00,
2014-01-21 03:49:00,-5.6,-12.4,29.15,North,0,0.0,0.0,72,0.00,,,0.00,WUHU216HW,2014-01-21 09:49:00,
2014-01-21 03:54:00,-5.6,-12.4,29.15,North,0,0.0,0.0,72,0.00,,,0.00,WUHU216HW,2014-01-21 09:54:00,
2014-01-21 04:00:00,-6.1,-12.7,29.16,North,0,0.0,0.0,73,0.00,,,0.00,WUHU216HW,2014-01-21 10:00:00,
2014-01-21 04:05:00,-6.3,-12.9,29.15,North,0,0.0,0.0,73,0.00,,,0.00,WUHU216HW,2014-01-21 10:05:00,
2014-01-21 04:10:00,-6.5,-12.9,29.16,North,0,0.0,0.0,73,0.00,,,0.00,WUHU216HW,2014-01-21 10:10:00,
2014-01-21 04:15:00,-6.5,-12.9,29.16,North,0,0.0,0.0,73,0.00,,,0.00,WUHU216HW,2014-01-21 10:15:00,
2014-01-21 04:20:00,-6.7,-12.9,29.16,North,0,0.0,0.0,74,0.00,,,0.00,WUHU216HW,2014-01-21 10:20:00,
2014-01-21 04:25:00,-6.8,-13.0,29.16,North,0,0.0,0.0,74,0.00,,,0.00,WUHU216HW,2014-01-21 10:25:00,
2014-01-21 04:30:00,-6.8,-13.0,29.16,North,0,0.0,0.0,74,0.00,,,0.00,WUHU216HW,2014-01-21 10:30:00,
2014-01-21 04:35:00,-6.8,-13.0,29.15,North,0,0.0,0.0,74,0.00,,,0.00,WUHU216HW,2014-01-21 10:35:00,
2014-01-21 04:40:00,-6.8,-12.8,29.15,North,0,0.0,0.0,75,0.00,,,0.00,WUHU216HW,2014-01-21 10:40:00,
2014-01-21 04:45:00,-6.8,-12.8,29.15,North,0,0.0,0.0,75,0.00,,,0.00,WUHU216HW,2014-01-21 10:45:00,
2014-01-21 04:50:00,-6.8,-12.8,29.15,North,0,0.0,0.0,75,0.00,,,0.00,WUHU216HW,2014-01-21 10:50:00,
2014-01-21 04:55:00,-7.2,-13.1,29.15,North,0,0.0,0.0,75,0.00,,,0.00,WUHU216HW,2014-01-21 10:55:00,
2014-01-21 05:00:00,-7.4,-13.3,29.15,North,0,0.0,0.0,75,0.00,,,0.00,WUHU216HW,2014-01-21 11:00:00,
2014-01-21 05:05:00,-7.6,-13.5,29.16,North,0,0.0,0.0,75,0.00,,,0.00,WUHU216HW,2014-01-21 11:05:00,
2014-01-21 05:10:00,-7.6,-13.8,29.16,North,0,0.0,0.0,74,0.00,,,0.00,WUHU216HW,2014-01-21 11:10:00,
2014-01-21 05:15:00,-7.9,-13.9,29.16,North,0,0.0,0.0,75,0.00,,,0.00,WUHU216HW,2014-01-21 11:15:00,
2014-01-21 05:19:00,-7.9,-13.9,29.16,North,0,0.0,0.0,75,0.00,,,0.00,WUHU216HW,2014-01-21 11:19:00,
2014-01-21 05:24:00,-8.1,-14.0,29.16,North,0,0.0,0.0,75,0.00,,,0.00,WUHU216HW,2014-01-21 11:24:00,
2014-01-21 05:29:00,-8.3,-14.2,29.16,North,0,0.0,0.0,75,0.00,,,0.00,WUHU216HW,2014-01-21 11:29:00,
2014-01-21 05:34:00,-8.3,-14.2,29.16,North,0,0.0,0.0,75,0.00,,,0.00,WUHU216HW,2014-01-21 11:34:00,
2014-01-21 05:39:00,-8.3,-14.2,29.16,North,0,0.0,0.0,75,0.00,,,0.00,WUHU216HW,2014-01-21 11:39:00,
2014-01-21 05:44:00,-8.3,-13.9,29.17,North,0,0.0,0.0,76,0.00,,,0.00,WUHU216HW,2014-01-21 11:44:00,
2014-01-21 05:49:00,-8.5,-14.4,29.17,North,0,0.0,0.0,75,0.00,,,0.00,WUHU216HW,2014-01-21 11:49:00,
2014-01-21 05:54:00,-8.3,-13.9,29.16,North,0,0.0,0.0,76,0.00,,,0.00,WUHU216HW,2014-01-21 11:54:00,
2014-01-21 05:59:00,-8.6,-14.2,29.16,North,0,0.0,0.0,76,0.00,,,0.00,WUHU216HW,2014-01-21 11:59:00,
2014-01-21 06:04:00,-8.5,-14.1,29.16,North,0,0.0,0.0,76,0.00,,,0.00,WUHU216HW,2014-01-21 12:04:00,
2014-01-21 06:09:00,-8.6,-14.5,29.16,North,0,0.0,0.0,75,0.00,,,0.00,WUHU216HW,2014-01-21 12:09:00,
2014-01-21 06:14:00,-8.6,-14.5,29.16,North,0,0.0,0.0,75,0.00,,,0.00,WUHU216HW,2014-01-21 12:14:00,
2014-01-21 06:19:00,-8.8,-14.7,29.16,North,0,0.0,0.0,75,0.00,,,0.00,WUHU216HW,2014-01-21 12:19:00,
2014-01-21 06:24:00,-9.0,-14.8,29.16,North,0,0.0,0.0,75,0.00,,,0.00,WUHU216HW,2014-01-21 12:24:00,
2014-01-21 06:29:00,-9.0,-15.1,29.16,North,0,0.0,0.0,74,0.00,,,0.00,WUHU216HW,2014-01-21 12:29:00,
2014-01-21 06:34:00,-9.2,-15.3,29.16,North,0,0.0,0.0,74,0.00,,,0.00,WUHU216HW,2014-01-21 12:34:00,
2014-01-21 06:39:00,-9.4,-15.5,29.16,North,0,0.0,0.0,74,0.00,,,0.00,WUHU216HW,2014-01-21 12:39:00,
2014-01-21 06:44:00,-9.5,-15.7,29.16,North,0,0.0,0.0,74,0.00,,,0.00,WUHU216HW,2014-01-21 12:44:00,
2014-01-21 06:49:00,-9.7,-15.8,29.17,North,0,0.0,0.0,74,0.00,,,0.00,WUHU216HW,2014-01-21 12:49:00,
2014-01-21 06:54:00,-9.7,-15.8,29.16,North,0,0.0,0.0,74,0.00,,,0.00,WUHU216HW,2014-01-21 12:54:00,
2014-01-21 06:59:00,-9.7,-15.8,29.17,North,0,0.0,0.0,74,0.00,,,0.00,WUHU216HW,2014-01-21 12:59:00,
2014-01-21 07:04:00,-9.9,-16.0,29.17,North,0,0.0,0.0,74,0.00,,,0.00,WUHU216HW,2014-01-21 13:04:00,
2014-01-21 07:09:00,-9.9,-16.0,29.17,North,0,0.0,0.0,74,0.00,,,0.00,WUHU216HW,2014-01-21 13:09:00,
2014-01-21 07:14:00,-10.1,-16.2,29.16,North,0,0.0,0.0,74,0.00,,,0.00,WUHU216HW,2014-01-21 13:14:00,
2014-01-21 07:19:00,-10.3,-16.4,29.17,North,0,0.0,0.0,74,0.00,,,0.00,WUHU216HW,2014-01-21 13:19:00,
2014-01-21 07:24:00,-10.3,-16.4,29.17,North,0,0.0,0.0,74,0.00,,,0.00,WUHU216HW,2014-01-21 13:24:00,
2014-01-21 07:29:00,-10.4,-16.6,29.17,North,0,0.0,0.0,74,0.00,,,0.00,WUHU216HW,2014-01-21 13:29:00,
2014-01-21 07:34:00,-10.6,-16.7,29.16,North,0,0.0,0.0,74,0.00,,,0.00,WUHU216HW,2014-01-21 13:34:00,
2014-01-21 07:39:00,-10.6,-16.7,29.16,North,0,0.0,0.0,74,0.00,,,0.00,WUHU216HW,2014-01-21 13:39:00,
2014-01-21 07:44:00,-10.8,-16.9,29.17,North,0,0.0,0.0,74,0.00,,,0.00,WUHU216HW,2014-01-21 13:44:00,
2014-01-21 07:49:00,-10.8,-16.9,29.17,North,0,0.0,0.0,74,0.00,,,0.00,WUHU216HW,2014-01-21 13:49:00,
2014-01-21 07:54:00,-10.8,-16.9,29.17,North,0,0.0,0.0,74,0.00,,,0.00,WUHU216HW,2014-01-21 13:54:00,
2014-01-21 07:59:00,-10.8,-16.9,29.18,North,0,0.0,0.0,74,0.00,,,0.00,WUHU216HW,2014-01-21 13:59:00,
2014-01-21 08:04:00,-10.8,-16.6,29.18,North,0,0.0,0.0,75,0.00,,,0.00,WUHU216HW,2014-01-21 14:04:00,
2014-01-21 08:09:00,-10.6,-16.5,29.18,North,0,0.0,0.0,75,0.00,,,0.00,WUHU216HW,2014-01-21 14:09:00,
2014-01-21 08:14:00,-10.4,-16.3,29.17,North,0,0.0,0.0,75,0.00,,,0.00,WUHU216HW,2014-01-21 14:14:00,
2014-01-21 08:19:00,-10.1,-15.9,29.17,North,0,0.0,0.0,75,0.00,,,0.00,WUHU216HW,2014-01-21 14:19:00,
2014-01-21 08:24:00,-9.9,-15.5,29.17,North,0,0.0,0.0,76,0.00,,,0.00,WUHU216HW,2014-01-21 14:24:00,
2014-01-21 08:29:00,-9.2,-15.0,29.17,North,0,0.0,0.0,75,0.00,,,0.00,WUHU216HW,2014-01-21 14:29:00,
2014-01-21 08:34:00,-8.8,-14.4,29.17,North,0,0.0,0.0,76,0.00,,,0.00,WUHU216HW,2014-01-21 14:34:00,
2014-01-21 08:39:00,-8.3,-13.9,29.17,North,0,0.0,0.0,76,0.00,,,0.00,WUHU216HW,2014-01-21 14:39:00,
2014-01-21 08:44:00,-8.3,-14.2,29.17,North,0,0.0,0.0,75,0.00,,,0.00,WUHU216HW,2014-01-21 14:44:00,
2014-01-21 08:49:00,-8.1,-14.0,29.16,North,0,0.0,0.0,75,0.00,,,0.00,WUHU216HW,2014-01-21 14:49:00,
2014-01-21 08:54:00,-7.6,-13.5,29.16,North,0,0.0,0.0,75,0.00,,,0.00,WUHU216HW,2014-01-21 14:54:00,
2014-01-21 08:59:00,-7.0,-12.9,29.16,North,0,0.0,0.0,75,0.00,,,0.00,WUHU216HW,2014-01-21 14:59:00,
2014-01-21 09:04:00,-6.5,-12.8,29.16,North,0,0.0,0.0,74,0.00,,,0.00,WUHU216HW,2014-01-21 15:04:00,
2014-01-21 09:09:00,-6.1,-12.7,29.16,North,0,0.0,0.0,73,0.00,,,0.00,WUHU216HW,2014-01-21 15:09:00,
2014-01-21 09:14:00,-5.4,-12.0,29.16,North,0,0.0,0.0,73,0.00,,,0.00,WUHU216HW,2014-01-21 15:14:00,
2014-01-21 09:19:00,-5.0,-11.9,29.16,North,0,0.0,0.0,72,0.00,,,0.00,WUHU216HW,2014-01-21 15:19:00,
2014-01-21 09:24:00,-4.7,-11.5,29.16,North,0,0.0,0.0,72,0.00,,,0.00,WUHU216HW,2014-01-21 15:24:00,
2014-01-21 09:29:00,-3.8,-10.6,29.16,North,0,0.0,0.0,72,0.00,,,0.00,WUHU216HW,2014-01-21 15:29:00,
2014-01-21 09:34:00,-3.1,-9.9,29.16,North,0,0.0,0.0,72,0.00,,,0.00,WUHU216HW,2014-01-21 15:34:00,
2014-01-21 09:39:00,-2.5,-9.4,29.16,West,270,0.4,0.4,72,0.00,,,0.00,WUHU216HW,2014-01-21 15:39:00,
2014-01-21 09:44:00,-1.8,-8.9,29.16,North,0,0.0,0.4,71,0.00,,,0.00,WUHU216HW,2014-01-21 15:44:00,
2014-01-21 09:49:00,-1.6,-9.1,29.16,North,0,0.0,0.4,70,0.00,,,0.00,WUHU216HW,2014-01-21 15:49:00,
2014-01-21 09:54:00,-1.4,-9.2,29.16,North,0,0.0,0.0,69,0.00,,,0.00,WUHU216HW,2014-01-21 15:54:00,
2014-01-21 09:59:00,-1.6,-10.0,29.15,North,0,0.0,0.0,67,0.00,,,0.00,WUHU216HW,2014-01-21 15:59:00,
2014-01-21 10:04:00,-1.1,-9.2,29.15,North,0,0.0,0.0,68,0.00,,,0.00,WUHU216HW,2014-01-21 16:04:00,
2014-01-21 10:09:00,-1.1,-9.5,29.14,North,0,0.0,0.0,67,0.00,,,0.00,WUHU216HW,2014-01-21 16:09:00,
2014-01-21 10:14:00,-1.1,-9.5,29.14,North,0,0.0,0.0,67,0.00,,,0.00,WUHU216HW,2014-01-21 16:14:00,
2014-01-21 10:19:00,-1.1,-9.5,29.15,North,0,0.0,0.0,67,0.00,,,0.00,WUHU216HW,2014-01-21 16:19:00,
2014-01-21 10:24:00,-0.7,-9.2,29.14,North,0,0.0,0.0,67,0.00,,,0.00,WUHU216HW,2014-01-21 16:24:00,
2014-01-21 10:29:00,-0.4,-8.8,29.15,North,0,0.0,0.0,67,0.00,,,0.00,WUHU216HW,2014-01-21 16:29:00,
2014-01-21 10:34:00,0.0,-8.8,29.15,North,0,0.0,0.0,66,0.00,,,0.00,WUHU216HW,2014-01-21 16:34:00,
2014-01-21 10:39:00,0.2,-8.3,29.15,North,0,0.0,0.0,67,0.00,,,0.00,WUHU216HW,2014-01-21 16:39:00,
2014-01-21 10:44:00,0.4,-8.7,29.15,North,0,0.0,0.0,65,0.00,,,0.00,WUHU216HW,2014-01-21 16:44:00,
2014-01-21 10:49:00,0.5,-8.6,29.15,North,0,0.0,0.0,65,0.00,,,0.00,WUHU216HW,2014-01-21 16:49:00,
2014-01-21 10:54:00,0.7,-8.1,29.15,North,0,0.0,0.0,66,0.00,,,0.00,WUHU216HW,2014-01-21 16:54:00,
2014-01-21 10:59:00,0.9,-8.3,29.15,North,0,0.0,0.0,65,0.00,,,0.00,WUHU216HW,2014-01-21 16:59:00,
2014-01-21 11:04:00,0.9,-8.5,29.14,North,0,0.0,0.0,64,0.00,,,0.00,WUHU216HW,2014-01-21 17:04:00,
2014-01-21 11:09:00,1.1,-8.4,29.14,North,0,0.0,0.0,64,0.00,,,0.00,WUHU216HW,2014-01-21 17:09:00,
2014-01-21 11:14:00,1.3,-7.9,29.14,North,0,0.0,0.0,65,0.00,,,0.00,WUHU216HW,2014-01-21 17:14:00,
2014-01-21 11:19:00,1.4,-8.4,29.14,North,0,0.0,0.0,63,0.00,,,0.00,WUHU216HW,2014-01-21 17:19:00,
2014-01-21 11:24:00,1.4,-8.4,29.13,North,0,0.0,0.0,63,0.00,,,0.00,WUHU216HW,2014-01-21 17:24:00,
2014-01-21 11:29:00,1.8,-8.0,29.13,North,0,0.0,0.0,63,0.00,,,0.00,WUHU216HW,2014-01-21 17:29:00,
2014-01-21 11:34:00,2.0,-7.6,29.13,North,0,0.0,0.0,64,0.00,,,0.00,WUHU216HW,2014-01-21 17:34:00,
2014-01-21 11:39:00,2.5,-7.0,29.13,North,0,0.0,0.0,64,0.00,,,0.00,WUHU216HW,2014-01-21 17:39:00,
2014-01-21 11:44:00,2.3,-7.5,29.13,North,0,0.0,0.0,63,0.00,,,0.00,WUHU216HW,2014-01-21 17:44:00,
2014-01-21 11:49:00,2.5,-7.3,29.13,North,0,0.0,0.0,63,0.00,,,0.00,WUHU216HW,2014-01-21 17:49:00,
2014-01-21 11:54:00,2.7,-7.1,29.13,North,0,0.0,0.0,63,0.00,,,0.00,WUHU216HW,2014-01-21 17:54:00,
2014-01-21 11:59:00,2.7,-7.7,29.12,North,0,0.0,0.0,61,0.00,,,0.00,WUHU216HW,2014-01-21 17:59:00,
2014-01-21 12:04:00,2.5,-7.9,29.12,North,0,0.0,0.0,61,0.00,,,0.00,WUHU216HW,2014-01-21 18:04:00,
2014-01-21 12:09:00,2.9,-7.5,29.12,North,0,0.0,0.0,61,0.00,,,0.00,WUHU216HW,2014-01-21 18:09:00,
2014-01-21 12:14:00,2.7,-7.7,29.11,North,0,0.0,0.0,61,0.00,,,0.00,WUHU216HW,2014-01-21 18:14:00,
2014-01-21 12:19:00,2.9,-7.3,29.11,North,0,0.0,0.0,62,0.00,,,0.00,WUHU216HW,2014-01-21 18:19:00,
2014-01-21 12:24:00,3.1,-7.4,29.11,North,0,0.0,0.0,61,0.00,,,0.00,WUHU216HW,2014-01-21 18:24:00,
2014-01-21 12:29:00,3.1,-7.4,29.10,North,0,0.0,0.0,61,0.00,,,0.00,WUHU216HW,2014-01-21 18:29:00,
2014-01-21 12:31:00,3.4,-6.7,29.10,North,0,0.0,0.0,62,0.00,,,0.00,WUHU216HW,2014-01-21 18:31:00,
2014-01-21 12:34:00,3.4,-6.7,29.10,North,0,0.0,0.0,62,0.00,,,0.00,WUHU216HW,2014-01-21 18:34:00,
2014-01-21 12:39:00,3.4,-6.7,29.10,North,0,0.0,0.0,62,0.00,,,0.00,WUHU216HW,2014-01-21 18:39:00,
2014-01-21 13:00:00,4.1,-6.7,29.10,North,0,0.0,0.0,60,0.00,,,0.00,WUHU216HW,2014-01-21 19:00:00,
2014-01-21 13:05:00,4.1,-6.7,29.10,North,0,0.0,0.0,60,0.00,,,0.00,WUHU216HW,2014-01-21 19:05:00,
2014-01-21 13:10:00,4.1,-6.7,29.10,North,0,0.0,0.0,60,0.00,,,0.00,WUHU216HW,2014-01-21 19:10:00,
2014-01-21 13:15:00,3.2,-8.7,29.09,North,0,0.0,0.0,57,0.00,,,0.00,WUHU216HW,2014-01-21 19:15:00,
2014-01-21 13:20:00,3.1,-8.4,29.09,North,0,0.0,0.0,58,0.00,,,0.00,WUHU216HW,2014-01-21 19:20:00,
2014-01-21 13:25:00,3.6,-7.6,29.09,North,0,0.0,0.0,59,0.00,,,0.00,WUHU216HW,2014-01-21 19:25:00,
2014-01-21 13:30:00,3.8,-7.8,29.09,North,0,0.0,0.0,58,0.00,,,0.00,WUHU216HW,2014-01-21 19:30:00,
2014-01-21 13:35:00,4.0,-7.3,29.09,North,0,0.0,0.0,59,0.00,,,0.00,WUHU216HW,2014-01-21 19:35:00,
2014-01-21 13:40:00,4.0,-7.3,29.08,North,0,0.0,0.0,59,0.00,,,0.00,WUHU216HW,2014-01-21 19:40:00,
2014-01-21 13:45:00,4.9,-6.1,29.08,North,0,0.0,0.0,60,0.00,,,0.00,WUHU216HW,2014-01-21 19:45:00,
2014-01-21 13:46:00,5.2,-5.8,29.08,North,0,0.0,0.0,60,0.00,,,0.00,WUHU216HW,2014-01-21 19:46:00,
2014-01-21 13:50:00,5.2,-5.8,29.08,North,0,0.0,0.0,60,0.00,,,0.00,WUHU216HW,2014-01-21 19:50:00,
2014-01-21 13:55:00,5.2,-5.8,29.08,North,0,0.0,0.0,60,0.00,,,0.00,WUHU216HW,2014-01-21 19:55:00,
2014-01-21 14:00:00,5.6,-6.1,29.08,North,0,0.0,0.0,58,0.00,,,0.00,WUHU216HW,2014-01-21 20:00:00,
2014-01-21 14:05:00,5.9,-5.4,29.07,North,0,0.0,0.0,59,0.00,,,0.00,WUHU216HW,2014-01-21 20:05:00,
2014-01-21 14:10:00,6.1,-5.6,29.07,North,0,0.0,0.0,58,0.00,,,0.00,WUHU216HW,2014-01-21 20:10:00,
2014-01-21 14:15:00,6.1,-5.6,29.07,North,0,0.0,0.0,58,0.00,,,0.00,WUHU216HW,2014-01-21 20:15:00,
2014-01-21 14:20:00,5.8,-6.3,29.06,North,0,0.0,0.0,57,0.00,,,0.00,WUHU216HW,2014-01-21 20:20:00,
2014-01-21 14:25:00,5.2,-7.2,29.06,North,0,0.0,0.0,56,0.00,,,0.00,WUHU216HW,2014-01-21 20:25:00,
2014-01-21 14:30:00,5.4,-6.3,29.06,North,0,0.0,0.0,58,0.00,,,0.00,WUHU216HW,2014-01-21 20:30:00,
2014-01-21 14:35:00,5.6,-5.7,29.06,North,0,0.0,0.0,59,0.00,,,0.00,WUHU216HW,2014-01-21 20:35:00,
2014-01-21 14:40:00,5.9,-5.4,29.06,North,0,0.0,0.0,59,0.00,,,0.00,WUHU216HW,2014-01-21 20:40:00,
2014-01-21 14:45:00,5.6,-6.1,29.05,North,0,0.0,0.0,58,0.00,,,0.00,WUHU216HW,2014-01-21 20:45:00,
2014-01-21 14:50:00,5.4,-6.3,29.05,North,0,0.0,0.0,58,0.00,,,0.00,WUHU216HW,2014-01-21 20:50:00,
2014-01-21 14:55:00,5.4,-5.6,29.04,North,0,0.0,0.0,60,0.00,,,0.00,WUHU216HW,2014-01-21 20:55:00,
2014-01-21 15:00:00,4.9,-6.1,29.04,North,0,0.0,0.0,60,0.00,,,0.00,WUHU216HW,2014-01-21 21:00:00,
2014-01-21 15:05:00,5.0,-5.9,29.04,North,0,0.0,0.0,60,0.00,,,0.00,WUHU216HW,2014-01-21 21:05:00,
2014-01-21 15:10:00,4.7,-6.3,29.04,North,0,0.0,0.0,60,0.00,,,0.00,WUHU216HW,2014-01-21 21:10:00,
2014-01-21 15:15:00,4.7,-6.3,29.04,North,0,0.0,0.0,60,0.00,,,0.00,WUHU216HW,2014-01-21 21:15:00,
2014-01-21 15:20:00,4.5,-6.4,29.04,North,0,0.0,0.0,60,0.00,,,0.00,WUHU216HW,2014-01-21 21:20:00,
2014-01-21 15:25:00,4.1,-6.7,29.04,North,0,0.0,0.0,60,0.00,,,0.00,WUHU216HW,2014-01-21 21:25:00,
2014-01-21 15:29:00,4.0,-6.9,29.04,North,0,0.0,0.0,60,0.00,,,0.00,WUHU216HW,2014-01-21 21:29:00,
2014-01-21 15:34:00,3.8,-7.5,29.05,North,0,0.0,0.0,59,0.00,,,0.00,WUHU216HW,2014-01-21 21:34:00,
2014-01-21 15:39:00,3.4,-7.7,29.05,North,0,0.0,0.0,59,0.00,,,0.00,WUHU216HW,2014-01-21 21:39:00,
2014-01-21 15:44:00,3.1,-8.1,29.05,North,0,0.0,0.0,59,0.00,,,0.00,WUHU216HW,2014-01-21 21:44:00,
2014-01-21 15:49:00,2.7,-8.4,29.05,North,0,0.0,0.0,59,0.00,,,0.00,WUHU216HW,2014-01-21 21:49:00,
2014-01-21 15:54:00,2.5,-8.6,29.05,North,0,0.0,0.0,59,0.00,,,0.00,WUHU216HW,2014-01-21 21:54:00,
2014-01-21 15:59:00,2.2,-9.0,29.05,North,0,0.0,0.0,59,0.00,,,0.00,WUHU216HW,2014-01-21 21:59:00,
2014-01-21 16:04:00,2.0,-8.8,29.05,North,0,0.0,0.0,60,0.00,,,0.00,WUHU216HW,2014-01-21 22:04:00,
2014-01-21 16:09:00,1.8,-8.6,29.05,North,0,0.0,0.0,61,0.00,,,0.00,WUHU216HW,2014-01-21 22:09:00,
2014-01-21 16:14:00,1.8,-8.6,29.05,North,0,0.0,0.0,61,0.00,,,0.00,WUHU216HW,2014-01-21 22:14:00,
2014-01-21 16:19:00,1.6,-8.8,29.04,North,0,0.0,0.0,61,0.00,,,0.00,WUHU216HW,2014-01-21 22:19:00,
2014-01-21 16:24:00,1.3,-9.5,29.04,North,0,0.0,0.0,60,0.00,,,0.00,WUHU216HW,2014-01-21 22:24:00,
2014-01-21 16:29:00,0.9,-9.8,29.04,North,0,0.0,0.0,60,0.00,,,0.00,WUHU216HW,2014-01-21 22:29:00,
2014-01-21 16:34:00,0.5,-9.9,29.04,North,0,0.0,0.0,61,0.00,,,0.00,WUHU216HW,2014-01-21 22:34:00,
2014-01-21 16:39:00,0.4,-10.0,29.03,North,0,0.0,0.0,61,0.00,,,0.00,WUHU216HW,2014-01-21 22:39:00,
2014-01-21 16:44:00,0.4,-10.0,29.03,North,0,0.0,0.0,61,0.00,,,0.00,WUHU216HW,2014-01-21 22:44:00,
2014-01-21 16:49:00,0.0,-10.1,29.04,North,0,0.0,0.0,62,0.00,,,0.00,WUHU216HW,2014-01-21 22:49:00,
2014-01-21 16:54:00,-0.2,-10.2,29.04,North,0,0.0,0.0,62,0.00,,,0.00,WUHU216HW,2014-01-21 22:54:00,
2014-01-21 16:59:00,-0.4,-10.3,29.04,North,0,0.0,0.0,62,0.00,,,0.00,WUHU216HW,2014-01-21 22:59:00,
2014-01-21 17:04:00,-0.5,-10.5,29.04,North,0,0.0,0.0,62,0.00,,,0.00,WUHU216HW,2014-01-21 23:04:00,
2014-01-21 17:09:00,-0.7,-10.4,29.03,North,0,0.0,0.0,63,0.00,,,0.00,WUHU216HW,2014-01-21 23:09:00,
2014-01-21 17:14:00,-1.1,-10.8,29.03,North,0,0.0,0.0,63,0.00,,,0.00,WUHU216HW,2014-01-21 23:14:00,
2014-01-21 17:19:00,-1.3,-10.9,29.03,North,0,0.0,0.0,63,0.00,,,0.00,WUHU216HW,2014-01-21 23:19:00,
2014-01-21 17:24:00,-1.4,-11.1,29.03,North,0,0.0,0.0,63,0.00,,,0.00,WUHU216HW,2014-01-21 23:24:00,
2014-01-21 17:29:00,-1.6,-11.2,29.03,North,0,0.0,0.0,63,0.00,,,0.00,WUHU216HW,2014-01-21 23:29:00,
2014-01-21 17:34:00,-1.8,-11.4,29.03,North,0,0.0,0.0,63,0.00,,,0.00,WUHU216HW,2014-01-21 23:34:00,
2014-01-21 17:39:00,-1.8,-11.4,29.03,North,0,0.0,0.0,63,0.00,,,0.00,WUHU216HW,2014-01-21 23:39:00,
2014-01-21 17:44:00,-2.2,-11.8,29.03,North,0,0.0,0.0,63,0.00,,,0.00,WUHU216HW,2014-01-21 23:44:00,
2014-01-21 17:49:00,-2.5,-12.1,29.02,North,0,0.0,0.0,63,0.00,,,0.00,WUHU216HW,2014-01-21 23:49:00,
2014-01-21 17:54:00,-2.9,-12.5,29.02,North,0,0.0,0.0,63,0.00,,,0.00,WUHU216HW,2014-01-21 23:54:00,
2014-01-21 17:59:00,-3.2,-12.8,29.02,North,0,0.0,0.0,63,0.00,,,0.00,WUHU216HW,2014-01-21 23:59:00,
2014-01-21 18:04:00,-3.4,-12.9,29.02,North,0,0.0,0.0,63,0.00,,,0.00,WUHU216HW,2014-01-22 00:04:00,
2014-01-21 18:09:00,-3.8,-13.3,29.02,North,0,0.0,0.0,63,0.00,,,0.00,WUHU216HW,2014-01-22 00:09:00,
2014-01-21 18:14:00,-4.3,-13.5,29.01,North,0,0.0,0.0,64,0.00,,,0.00,WUHU216HW,2014-01-22 00:14:00,
2014-01-21 18:19:00,-4.7,-13.8,29.01,North,0,0.0,0.0,64,0.00,,,0.00,WUHU216HW,2014-01-22 00:19:00,
2014-01-21 18:24:00,-5.0,-14.2,29.01,North,0,0.0,0.0,64,0.00,,,0.00,WUHU216HW,2014-01-22 00:24:00,
2014-01-21 18:29:00,-5.4,-14.6,29.01,North,0,0.0,0.0,64,0.00,,,0.00,WUHU216HW,2014-01-22 00:29:00,
2014-01-21 18:34:00,-5.8,-14.9,29.01,North,0,0.0,0.0,64,0.00,,,0.00,WUHU216HW,2014-01-22 00:34:00,
2014-01-21 18:39:00,-5.8,-14.7,29.01,North,0,0.0,0.0,65,0.00,,,0.00,WUHU216HW,2014-01-22 00:39:00,
2014-01-21 18:44:00,-5.9,-14.8,29.00,North,0,0.0,0.0,65,0.00,,,0.00,WUHU216HW,2014-01-22 00:44:00,
2014-01-21 18:49:00,-6.1,-14.7,29.00,North,0,0.0,0.0,66,0.00,,,0.00,WUHU216HW,2014-01-22 00:49:00,
2014-01-21 18:54:00,-6.1,-14.7,29.00,North,0,0.0,0.0,66,0.00,,,0.00,WUHU216HW,2014-01-22 00:54:00,
2014-01-21 18:59:00,-6.5,-15.0,29.00,North,0,0.0,0.0,66,0.00,,,0.00,WUHU216HW,2014-01-22 00:59:00,
2014-01-21 19:04:00,-6.7,-15.2,29.00,North,0,0.0,0.0,66,0.00,,,0.00,WUHU216HW,2014-01-22 01:04:00,
2014-01-21 19:09:00,-6.8,-15.3,29.00,North,0,0.0,0.0,66,0.00,,,0.00,WUHU216HW,2014-01-22 01:09:00,
2014-01-21 19:14:00,-7.0,-15.8,29.00,North,0,0.0,0.0,65,0.00,,,0.00,WUHU216HW,2014-01-22 01:14:00,
2014-01-21 19:19:00,-7.2,-15.9,29.00,North,0,0.0,0.0,65,0.00,,,0.00,WUHU216HW,2014-01-22 01:19:00,
2014-01-21 19:24:00,-7.4,-15.8,29.00,North,0,0.0,0.0,66,0.00,,,0.00,WUHU216HW,2014-01-22 01:24:00,
2014-01-21 19:29:00,-7.6,-16.0,29.00,North,0,0.0,0.0,66,0.00,,,0.00,WUHU216HW,2014-01-22 01:29:00,
2014-01-21 19:34:00,-7.6,-16.0,29.00,North,0,0.0,0.0,66,0.00,,,0.00,WUHU216HW,2014-01-22 01:34:00,
2014-01-21 19:39:00,-7.7,-16.2,29.00,North,0,0.0,0.0,66,0.00,,,0.00,WUHU216HW,2014-01-22 01:39:00,
2014-01-21 19:44:00,-7.6,-16.0,29.00,North,0,0.0,0.0,66,0.00,,,0.00,WUHU216HW,2014-01-22 01:44:00,
2014-01-21 19:49:00,-7.4,-15.8,29.00,North,0,0.0,0.0,66,0.00,,,0.00,WUHU216HW,2014-01-22 01:49:00,
2014-01-21 19:54:00,-7.2,-15.4,29.00,North,0,0.0,0.0,67,0.00,,,0.00,WUHU216HW,2014-01-22 01:54:00,
2014-01-21 19:59:00,-6.8,-14.8,29.00,North,0,0.0,0.0,68,0.00,,,0.00,WUHU216HW,2014-01-22 01:59:00,
2014-01-21 20:04:00,-6.3,-14.2,28.99,North,0,0.0,0.0,68,0.00,,,0.00,WUHU216HW,2014-01-22 02:04:00,
2014-01-21 20:09:00,-5.9,-13.9,28.99,North,0,0.0,0.0,68,0.00,,,0.00,WUHU216HW,2014-01-22 02:09:00,
2014-01-21 20:14:00,-5.6,-13.6,28.99,North,0,0.0,0.0,68,0.00,,,0.00,WUHU216HW,2014-01-22 02:14:00,
2014-01-21 20:19:00,-5.4,-13.4,28.98,North,0,0.0,0.0,68,0.00,,,0.00,WUHU216HW,2014-01-22 02:19:00,
2014-01-21 20:24:00,-5.4,-13.4,28.98,North,0,0.0,0.0,68,0.00,,,0.00,WUHU216HW,2014-01-22 02:24:00,
2014-01-21 20:29:00,-5.0,-13.0,28.98,North,0,0.0,0.0,68,0.00,,,0.00,WUHU216HW,2014-01-22 02:29:00,
2014-01-21 20:34:00,-4.9,-12.5,28.98,North,0,0.0,0.0,69,0.00,,,0.00,WUHU216HW,2014-01-22 02:34:00,
2014-01-21 20:39:00,-4.7,-12.3,28.98,North,0,0.0,0.0,69,0.00,,,0.00,WUHU216HW,2014-01-22 02:39:00,
2014-01-21 20:44:00,-4.5,-12.1,28.98,North,0,0.0,0.0,69,0.00,,,0.00,WUHU216HW,2014-01-22 02:44:00,
2014-01-21 20:49:00,-4.3,-12.0,28.98,North,0,0.0,0.0,69,0.00,,,0.00,WUHU216HW,2014-01-22 02:49:00,
2014-01-21 20:54:00,-4.0,-11.6,28.98,North,0,0.0,0.0,69,0.00,,,0.00,WUHU216HW,2014-01-22 02:54:00,
2014-01-21 20:59:00,-4.0,-11.6,28.98,North,0,0.0,0.0,69,0.00,,,0.00,WUHU216HW,2014-01-22 02:59:00,
2014-01-21 21:04:00,-3.8,-11.4,28.98,North,0,0.0,0.0,69,0.00,,,0.00,WUHU216HW,2014-01-22 03:04:00,
2014-01-21 21:09:00,-3.6,-11.2,28.98,North,0,0.0,0.0,69,0.00,,,0.00,WUHU216HW,2014-01-22 03:09:00,
2014-01-21 21:14:00,-3.4,-11.1,28.98,North,0,0.0,0.0,69,0.00,,,0.00,WUHU216HW,2014-01-22 03:14:00,
2014-01-21 21:19:00,-3.1,-10.8,28.98,North,0,0.0,0.0,69,0.00,,,0.00,WUHU216HW,2014-01-22 03:19:00,
2014-01-21 21:24:00,-2.9,-10.6,28.98,North,0,0.0,0.0,69,0.00,,,0.00,WUHU216HW,2014-01-22 03:24:00,
2014-01-21 21:29:00,-2.9,-10.6,28.98,North,0,0.0,0.0,69,0.00,,,0.00,WUHU216HW,2014-01-22 03:29:00,
2014-01-21 21:34:00,-2.9,-10.6,28.98,North,0,0.0,0.0,69,0.00,,,0.00,WUHU216HW,2014-01-22 03:34:00,
2014-01-21 21:39:00,-2.7,-10.4,28.97,North,0,0.0,0.0,69,0.00,,,0.00,WUHU216HW,2014-01-22 03:39:00,
2014-01-21 21:44:00,-2.5,-10.3,28.96,North,0,0.0,0.0,69,0.00,,,0.00,WUHU216HW,2014-01-22 03:44:00,
2014-01-21 21:49:00,-2.5,-10.3,28.96,North,0,0.0,0.0,69,0.00,,,0.00,WUHU216HW,2014-01-22 03:49:00,
2014-01-21 21:54:00,-2.7,-10.4,28.96,North,0,0.0,0.0,69,0.00,,,0.00,WUHU216HW,2014-01-22 03:54:00,
2014-01-21 21:59:00,-2.7,-10.4,28.96,North,0,0.0,0.0,69,0.00,,,0.00,WUHU216HW,2014-01-22 03:59:00,
2014-01-21 22:04:00,-2.5,-10.3,28.95,North,0,0.0,0.0,69,0.00,,,0.00,WUHU216HW,2014-01-22 04:04:00,
2014-01-21 22:09:00,-2.5,-10.3,28.95,North,0,0.0,0.0,69,0.00,,,0.00,WUHU216HW,2014-01-22 04:09:00,
2014-01-21 22:14:00,-2.5,-10.3,28.95,North,0,0.0,0.0,69,0.00,,,0.00,WUHU216HW,2014-01-22 04:14:00,
2014-01-21 22:19:00,-2.5,-10.3,28.95,North,0,0.0,0.0,69,0.00,,,0.00,WUHU216HW,2014-01-22 04:19:00,
2014-01-21 22:24:00,-2.5,-10.3,28.95,North,0,0.0,0.0,69,0.00,,,0.00,WUHU216HW,2014-01-22 04:24:00,
2014-01-21 22:29:00,-2.5,-10.3,28.95,North,0,0.0,0.0,69,0.00,,,0.00,WUHU216HW,2014-01-22 04:29:00,
2014-01-21 22:34:00,-2.5,-10.3,28.95,North,0,0.0,0.0,69,0.00,,,0.00,WUHU216HW,2014-01-22 04:34:00,
2014-01-21 22:39:00,-2.5,-10.3,28.95,North,0,0.0,0.0,69,0.00,,,0.00,WUHU216HW,2014-01-22 04:39:00,
2014-01-21 22:44:00,-2.5,-10.3,28.95,North,0,0.0,0.0,69,0.00,,,0.00,WUHU216HW,2014-01-22 04:44:00,
2014-01-21 22:49:00,-2.5,-10.3,28.95,North,0,0.0,0.0,69,0.00,,,0.00,WUHU216HW,2014-01-22 04:49:00,
2014-01-21 22:54:00,-2.5,-10.3,28.94,North,0,0.0,0.0,69,0.00,,,0.00,WUHU216HW,2014-01-22 04:54:00,
2014-01-21 22:59:00,-2.5,-10.3,28.95,North,0,0.0,0.0,69,0.00,,,0.00,WUHU216HW,2014-01-22 04:59:00,
2014-01-21 23:01:00,-2.5,-10.3,28.95,North,0,0.0,0.0,69,0.00,,,0.00,WUHU216HW,2014-01-22 05:01:00,
2014-01-21 23:06:00,-2.5,-10.3,28.95,North,0,0.0,0.0,69,0.00,,,0.00,WUHU216HW,2014-01-22 05:06:00,
2014-01-21 23:11:00,-2.3,-10.1,28.95,North,0,0.0,0.0,69,0.00,,,0.00,WUHU216HW,2014-01-22 05:11:00,
2014-01-21 23:16:00,-2.2,-9.9,28.94,North,0,0.0,0.0,69,0.00,,,0.00,WUHU216HW,2014-01-22 05:16:00,
2014-01-21 23:21:00,-2.2,-9.9,28.94,North,0,0.0,0.0,69,0.00,,,0.00,WUHU216HW,2014-01-22 05:21:00,
2014-01-21 23:26:00,-2.3,-10.1,28.94,North,0,0.0,0.0,69,0.00,,,0.00,WUHU216HW,2014-01-22 05:26:00,
2014-01-21 23:31:00,-2.3,-10.1,28.93,North,0,0.0,0.0,69,0.00,,,0.00,WUHU216HW,2014-01-22 05:31:00,
2014-01-21 23:36:00,-2.3,-10.1,28.92,North,0,0.0,0.0,69,0.00,,,0.00,WUHU216HW,2014-01-22 05:36:00,
2014-01-21 23:41:00,-2.3,-9.7,28.92,North,0,0.0,0.0,70,0.00,,,0.00,WUHU216HW,2014-01-22 05:41:00,
2014-01-21 23:46:00,-2.2,-9.5,28.92,North,0,0.0,0.0,70,0.00,,,0.00,WUHU216HW,2014-01-22 05:46:00,
2014-01-21 23:51:00,-2.2,-9.5,28.91,North,0,0.0,0.0,70,0.00,,,0.00,WUHU216HW,2014-01-22 05:51:00,
2014-01-21 23:56:00,-1.8,-9.2,28.91,North,0,0.0,0.0,70,0.00,,,0.00,WUHU216HW,2014-01-22 05:56:00,